When you browse on this site, cookies collect data to enhance your experience and personalize the content and advertising you see.
Visit our Privacy Policy to learn more. By continuing to use the site, you agree to this use of cookies and data.
  • In Czech Republic
  • List of Countries
  • For 7 days
  • Water Temperature
  • Satellite Maps
  • Weather Map
  • Weather Widgets
  • user-avatar
    Login

    Hourly Weather Orehovka

    Today, 22 May, Wednesday

    Time Temperature Precipitation Wind Pressure Humidity
    00:00 +14°C° 0 mm 3 mps 744 mmHg 95%
    01:00 +14°C° 0 mm 3 mps 743 mmHg 96%
    02:00 +14°C° 0 mm 2 mps 743 mmHg 98%
    03:00 +14°C° 0 mm 2 mps 743 mmHg 98%
    04:00 +14°C° 0 mm 2 mps 743 mmHg 98%
    05:00 +13°C° 0 mm 2 mps 743 mmHg 98%
    06:00 +15°C° 0 mm 2 mps 743 mmHg 89%
    07:00 +17°C° 0 mm 2 mps 743 mmHg 80%
    08:00 +19°C° 0 mm 2 mps 743 mmHg 71%
    09:00 +20°C° 0 mm 2 mps 743 mmHg 63%
    10:00 +23°C° 0 mm 2 mps 743 mmHg 56%
    11:00 +24°C° 0 mm 2 mps 743 mmHg 48%
    12:00 +24°C° 0 mm 2 mps 743 mmHg 48%
    13:00 +24°C° 0 mm 2 mps 742 mmHg 48%
    14:00 +24°C° 0 mm 2 mps 742 mmHg 47%
    15:00 +25°C° 0 mm 2 mps 742 mmHg 47%
    16:00 +25°C° 0 mm 1 mps 742 mmHg 47%
    17:00 +25°C° 0 mm 1 mps 742 mmHg 46%
    18:00 +23°C° 0 mm 1 mps 742 mmHg 52%
    19:00 +21°C° 0 mm 1 mps 742 mmHg 57%
    20:00 +18°C° 0 mm 0 mps 742 mmHg 62%
    21:00 +17°C° 0 mm 0 mps 742 mmHg 63%
    22:00 +16°C° 0 mm 0 mps 741 mmHg 64%
    23:00 +18°C° 0 mm 1 mps 741 mmHg 65%

    Tomorrow, 23 May, Thursday

    Time Temperature Precipitation Wind Pressure Humidity
    00:00 +16°C° 0 mm 1 mps 741 mmHg 68%
    01:00 +15°C° 0 mm 1 mps 741 mmHg 71%
    02:00 +15°C° 0 mm 1 mps 741 mmHg 74%
    03:00 +14°C° 0 mm 1 mps 741 mmHg 76%
    04:00 +14°C° 0 mm 1 mps 741 mmHg 77%
    05:00 +14°C° 0 mm 1 mps 741 mmHg 79%
    06:00 +16°C° 0 mm 1 mps 742 mmHg 72%
    07:00 +20°C° 0 mm 1 mps 742 mmHg 66%
    08:00 +22°C° 0 mm 1 mps 742 mmHg 59%
    09:00 +23°C° 0 mm 1 mps 742 mmHg 54%
    10:00 +24°C° 0 mm 2 mps 742 mmHg 50%
    11:00 +26°C° 0 mm 2 mps 742 mmHg 45%
    12:00 +26°C° 0 mm 2 mps 742 mmHg 47%
    13:00 +26°C° 0 mm 2 mps 742 mmHg 48%
    14:00 +25°C° 0 mm 2 mps 742 mmHg 49%
    15:00 +26°C° 0 mm 2 mps 741 mmHg 49%
    16:00 +26°C° 0 mm 2 mps 741 mmHg 50%
    17:00 +26°C° 0 mm 2 mps 741 mmHg 50%
    18:00 +24°C° 0 mm 2 mps 741 mmHg 56%
    19:00 +21°C° 0 mm 2 mps 741 mmHg 63%
    20:00 +20°C° 0 mm 1 mps 741 mmHg 69%
    21:00 +19°C° 0 mm 1 mps 741 mmHg 74%
    22:00 +18°C° 0 mm 1 mps 741 mmHg 79%
    23:00 +16°C° 0 mm 1 mps 742 mmHg 83%

    Day after tomorrow, 24 May, Friday

    Time Temperature Precipitation Wind Pressure Humidity
    00:00 +16°C° 0 mm 1 mps 741 mmHg 85%
    01:00 +15°C° 0 mm 1 mps 741 mmHg 87%
    02:00 +15°C° 0 mm 1 mps 741 mmHg 89%
    03:00 +15°C° 0 mm 1 mps 741 mmHg 89%
    04:00 +15°C° 0 mm 1 mps 742 mmHg 89%
    05:00 +14°C° 0 mm 0 mps 742 mmHg 89%
    06:00 +17°C° 0 mm 0 mps 742 mmHg 81%
    07:00 +21°C° 0 mm 1 mps 742 mmHg 73%
    08:00 +23°C° 0 mm 1 mps 742 mmHg 66%
    09:00 +24°C° 0 mm 1 mps 742 mmHg 60%
    10:00 +25°C° 0 mm 1 mps 742 mmHg 55%
    11:00 +27°C° 0 mm 1 mps 742 mmHg 49%
    12:00 +27°C° 0 mm 1 mps 742 mmHg 47%
    13:00 +28°C° 0 mm 1 mps 742 mmHg 45%
    14:00 +29°C° 0 mm 1 mps 742 mmHg 42%
    15:00 +27°C° 0.2 mm 1 mps 741 mmHg 50%
    16:00 +25°C° 0.2 mm 2 mps 741 mmHg 58%
    17:00 +24°C° 0.2 mm 2 mps 741 mmHg 65%
    18:00 +21°C° 0.2 mm 2 mps 741 mmHg 72%
    19:00 +20°C° 0.2 mm 2 mps 741 mmHg 78%
    20:00 +20°C° 0.2 mm 1 mps 741 mmHg 84%
    21:00 +19°C° 0 mm 1 mps 740 mmHg 85%
    22:00 +18°C° 0 mm 1 mps 740 mmHg 86%
    23:00 +15°C° 0 mm 0 mps 740 mmHg 88%

    25 May, Saturday

    Time Temperature Precipitation Wind Pressure Humidity
    00:00 +16°C° 0 mm 1 mps 740 mmHg 89%
    01:00 +16°C° 0 mm 1 mps 740 mmHg 91%
    02:00 +15°C° 0 mm 1 mps 740 mmHg 93%
    03:00 +15°C° 0.1 mm 1 mps 740 mmHg 94%
    04:00 +15°C° 0.1 mm 1 mps 740 mmHg 94%
    05:00 +15°C° 0.1 mm 1 mps 740 mmHg 95%
    06:00 +16°C° 0 mm 2 mps 740 mmHg 90%
    07:00 +18°C° 0 mm 2 mps 740 mmHg 85%
    08:00 +19°C° 0 mm 2 mps 740 mmHg 79%
    09:00 +20°C° 1 mm 3 mps 740 mmHg 78%
    10:00 +21°C° 1 mm 4 mps 740 mmHg 77%
    11:00 +21°C° 1 mm 4 mps 739 mmHg 75%
    12:00 +21°C° 0.9 mm 4 mps 739 mmHg 76%
    13:00 +21°C° 0.9 mm 4 mps 739 mmHg 77%
    14:00 +20°C° 0.9 mm 3 mps 739 mmHg 78%
    15:00 +20°C° 0.4 mm 3 mps 739 mmHg 76%
    16:00 +20°C° 0.4 mm 3 mps 739 mmHg 74%
    17:00 +21°C° 0.4 mm 2 mps 739 mmHg 72%
    18:00 +19°C° 0 mm 3 mps 739 mmHg 74%
    19:00 +18°C° 0 mm 3 mps 739 mmHg 76%
    20:00 +16°C° 0 mm 3 mps 740 mmHg 78%
    21:00 +14°C° 0 mm 3 mps 740 mmHg 83%
    22:00 +13°C° 0 mm 3 mps 740 mmHg 87%
    23:00 +12°C° 0 mm 3 mps 740 mmHg 92%

    26 May, Sunday

    Time Temperature Precipitation Wind Pressure Humidity
    00:00 +11°C° 0 mm 3 mps 740 mmHg 92%
    01:00 +12°C° 0 mm 2 mps 741 mmHg 92%
    02:00 +10°C° 0 mm 2 mps 741 mmHg 92%
    03:00 +9°C° 0 mm 2 mps 741 mmHg 92%
    04:00 +9°C° 0 mm 2 mps 741 mmHg 92%
    05:00 +9°C° 0 mm 2 mps 741 mmHg 92%
    06:00 +10°C° 0 mm 2 mps 741 mmHg 83%
    07:00 +12°C° 0 mm 3 mps 741 mmHg 75%
    08:00 +14°C° 0 mm 3 mps 741 mmHg 66%
    09:00 +16°C° 0 mm 3 mps 741 mmHg 62%
    10:00 +17°C° 0 mm 4 mps 741 mmHg 58%
    11:00 +19°C° 0 mm 4 mps 741 mmHg 54%
    12:00 +18°C° 0.1 mm 4 mps 741 mmHg 58%
    13:00 +18°C° 0.1 mm 4 mps 741 mmHg 62%
    14:00 +18°C° 0.1 mm 3 mps 740 mmHg 66%
    15:00 +18°C° 0.2 mm 4 mps 740 mmHg 68%
    16:00 +18°C° 0.2 mm 4 mps 740 mmHg 71%
    17:00 +17°C° 0.2 mm 5 mps 740 mmHg 73%
    18:00 +15°C° 0 mm 4 mps 740 mmHg 75%
    19:00 +14°C° 0 mm 3 mps 740 mmHg 76%
    20:00 +13°C° 0 mm 3 mps 740 mmHg 78%
    21:00 +12°C° 0.1 mm 3 mps 740 mmHg 80%
    22:00 +12°C° 0.1 mm 3 mps 740 mmHg 83%
    23:00 +11°C° 0.1 mm 3 mps 740 mmHg 86%

    27 May, Monday

    Time Temperature Precipitation Wind Pressure Humidity
    00:00 +10°C° 0 mm 3 mps 740 mmHg 87%
    01:00 +8°C° 0 mm 4 mps 740 mmHg 89%
    02:00 +7°C° 0 mm 4 mps 740 mmHg 91%
    03:00 +7°C° 0 mm 4 mps 740 mmHg 91%
    04:00 +7°C° 0 mm 4 mps 741 mmHg 90%
    05:00 +6°C° 0 mm 4 mps 741 mmHg 89%
    06:00 +7°C° 0 mm 5 mps 741 mmHg 82%
    07:00 +9°C° 0 mm 5 mps 741 mmHg 75%
    08:00 +10°C° 0 mm 6 mps 742 mmHg 68%
    09:00 +11°C° 0 mm 6 mps 742 mmHg 64%
    10:00 +14°C° 0 mm 6 mps 742 mmHg 59%
    11:00 +15°C° 0 mm 7 mps 743 mmHg 54%
    12:00 +15°C° 0.1 mm 6 mps 743 mmHg 57%
    13:00 +15°C° 0.1 mm 6 mps 743 mmHg 59%
    14:00 +15°C° 0.1 mm 6 mps 744 mmHg 62%
    15:00 +15°C° 0.1 mm 6 mps 744 mmHg 62%
    16:00 +15°C° 0.1 mm 5 mps 744 mmHg 62%
    17:00 +15°C° 0.1 mm 5 mps 744 mmHg 62%
    18:00 +13°C° 0 mm 4 mps 745 mmHg 69%
    19:00 +13°C° 0 mm 2 mps 745 mmHg 75%
    20:00 +12°C° 0 mm 1 mps 745 mmHg 82%
    21:00 +11°C° 0 mm 1 mps 745 mmHg 85%
    22:00 +10°C° 0 mm 1 mps 745 mmHg 88%
    23:00 +9°C° 0 mm 1 mps 746 mmHg 91%
    Show more